Weather Service Report


909 
ASUS43 KOAX 261902
RWRNE 

WEATHER ROUNDUP FOR NEBRASKA
NATIONAL WEATHER SERVICE OMAHA NE
200 PM CDT SUN JUN 26 2016

NOTES: SATELLITE DATA IS BEING USED TO AUGMENT CLOUD COVER ABOVE
       12000 FEET.
       "FAIR" INDICATES FEW OR NO CLOUDS BELOW 12,000 FEET WITH NO
       SIGNIFICANT WEATHER AND/OR OBSTRUCTIONS TO VISIBILITY.

  * THESE STATIONS DO NOT REPORT WEATHER SUCH AS RAIN...SNOW OR FOG.
   
NEZ001>004-019>022-054>056-262000-
NEBRASKA PANHANDLE
  
CITY           SKY/WX    TMP DP  RH WIND       PRES   REMARKS
SCOTTSBLUFF    SUNNY     87  48  25 S8        30.15F                  
ALLIANCE       SUNNY     88  41  19 SE14G21   30.16S                  
CHADRON        SUNNY     87  45  23 NE7       30.12F                  
KIMBALL        SUNNY     86  48  26 SE13      30.21F                  
SIDNEY         SUNNY     86  50  28 S8G17     30.20S                  
$$
 
NEZ057>060-069>072-079>082-262000-
SOUTHWEST NEBRASKA
  
CITY           SKY/WX    TMP DP  RH WIND       PRES   REMARKS
NORTH PLATTE   SUNNY     84  61  45 SE15      30.13F                  
IMPERIAL       MOSUNNY   85  63  47 E13G20    30.15F                  
MCCOOK         SUNNY     90  63  40 S12       30.12F HX  91           
OGALLALA       MOSUNNY   87  61  41 SE13      30.15F                  
$$
 
NEZ005>010-023>029-035>040-094-262000-
NORTH CENTRAL NEBRASKA
  
CITY           SKY/WX    TMP DP  RH WIND       PRES   REMARKS
VALENTINE      SUNNY     87  52  29 SW9G17    30.13F                  
AINSWORTH      SUNNY     87  46  24 S6        30.14F                  
BROKEN BOW     SUNNY     86  53  32 SE12      30.14F                  
O'NEILL        SUNNY     85  54  34 SW3       30.14S                  
ORD            SUNNY     87  53  31 SE9G17    30.12F                  
THEDFORD       SUNNY     87  53  30 S14G20    30.15F                  
$$
 
NEZ041-046>049-061>064-073>077-083>087-262000-
SOUTH CENTRAL NEBRASKA
  
CITY           SKY/WX    TMP DP  RH WIND       PRES   REMARKS
GRAND ISLAND   SUNNY     88  51  28 E13       30.14F                  
AURORA         SUNNY     86  54  33 SE9       30.13F                  
HASTINGS       SUNNY     88  48  25 SE7G20    30.13F                  
HEBRON         CLOUDY    83  65  55 NE8       30.12S                  
HOLDREGE       SUNNY     86  52  30 E13       30.14S                  
KEARNEY *      SUNNY     88  52  29 E13G18    30.15F                  
YORK           SUNNY     88  54  31 SE7       30.13F                  
$$
 
NEZ011>018-030>034-042>045-262000-
NORTHEAST NEBRASKA
  
CITY           SKY/WX    TMP DP  RH WIND       PRES   REMARKS
NORFOLK        SUNNY     85  54  34 S6        30.11F                  
ALBION         SUNNY     85  57  39 S7        30.13S                  
BLAIR          SUNNY     87  58  36 SE6       30.11S                  
FREMONT        SUNNY     87  53  31 SW8       30.12S                  
TEKAMAH        SUNNY     90  51  26 SW10      30.09F                  
WAYNE          SUNNY     84  60  44 S3        30.11F                  
$$

NEZ050>053-065>068-078-088>093-262000-
SOUTHEAST NEBRASKA
  
CITY           SKY/WX    TMP DP  RH WIND       PRES   REMARKS
LINCOLN        SUNNY     88  65  46 E10       30.11F HX  90           
OMAHA EPPLEY   MOSUNNY   89  65  44 S8G17     30.09F HX  91           
BEATRICE       CLOUDY    81  69  67 E6        30.11F                  
FALLS CITY     CLOUDY    81  71  71 CALM      30.09F                  
NEBRASKA CITY  CLOUDY    79  73  80 E3        30.12F                  
PLATTSMOUTH    PTSUNNY   85  71  63 SE6       30.12S                  
$$

NEZ044-045-051>053-067-262000-
OMAHA AREA
  
CITY           SKY/WX    TMP DP  RH WIND       PRES   REMARKS
OMAHA EPPLEY   MOSUNNY   89  65  44 S8G17     30.09F HX  91           
BLAIR          SUNNY     87  58  36 SE6       30.11S                  
FREMONT        SUNNY     87  53  31 SW8       30.12S                  
MILLARD        SUNNY     87  65  48 S6        30.10S                  
OFFUTT AFB     MOSUNNY   87  64  45 SE9       30.10F                  
PLATTSMOUTH    PTSUNNY   85  71  63 SE6       30.12S                  
WAHOO          FAIR      87  61  42 SE6       30.11F                  
$$
  

Return to Home page


Western Regional Climate Center, wrcc@dri.edu